EW2345 Weather Reports


Display with metric or nautical units.
time (UTC)temp
F
wind
direction
speed
MPH
gust
MPH
rain 1hr
in
rain 24hr
in
rain mn
in
humidity
%
barometer
mb
20260905230504 72 34 0.0 0.0 0.00 0.00 0.00 74 1019.0
20260905230002 72 34 1.0 5.0 0.00 0.00 0.00 73 1019.0
20260905225503 72 34 0.0 2.0 0.00 0.00 0.00 73 1018.9
20260905225003 73 34 1.0 3.0 0.00 0.00 0.00 72 1018.9
20260905224503 73 34 2.0 3.0 0.00 0.00 0.00 72 1018.8
20260905224003 73 34 0.0 3.0 0.00 0.00 0.00 71 1018.8
20260905223503 73 34 0.0 2.0 0.00 0.00 0.00 71 1018.8
20260905223002 73 34 0.0 0.0 0.00 0.00 0.00 71 1018.8
20260905222503 74 34 0.0 0.0 0.00 0.00 0.00 70 1018.7
20260905222003 74 34 0.0 0.0 0.00 0.00 0.00 70 1018.9
20260905221003 74 34 0.0 0.0 0.00 0.00 0.00 69 1018.8
20260905220503 74 34 0.0 0.0 0.00 0.00 0.00 69 1018.9
20260905220003 75 34 0.0 0.0 0.00 0.00 0.00 69 1018.8
20260905215503 75 34 0.0 0.0 0.00 0.00 0.00 69 1018.8
20260905215002 75 34 0.0 0.0 0.00 0.00 0.00 69 1018.8
20260905214503 75 34 0.0 0.0 0.00 0.00 0.00 68 1018.8
20260905213503 75 34 0.0 0.0 0.00 0.00 0.00 68 1018.8
20260905213004 76 34 0.0 0.0 0.00 0.00 0.00 68 1018.8
20260905212503 76 34 0.0 0.0 0.00 0.00 0.00 67 1018.7
20260905212002 76 34 0.0 0.0 0.00 0.00 0.00 67 1018.7
20260905211503 76 34 1.0 5.0 0.00 0.00 0.00 66 1018.6
20260905211003 76 34 1.0 2.0 0.00 0.00 0.00 66 1018.6
20260905210503 77 34 1.0 5.0 0.00 0.00 0.00 65 1018.7
20260905210004 77 35 0.0 2.0 0.00 0.00 0.00 64 1018.7
20260905205003 77 35 1.0 2.0 0.00 0.00 0.00 64 1018.6
20260905204503 77 35 0.0 1.0 0.00 0.00 0.00 64 1018.5
20260905204003 78 35 0.0 2.0 0.00 0.00 0.00 64 1018.4
20260905203503 78 35 1.0 2.0 0.00 0.00 0.00 64 1018.5
20260905203004 78 35 0.0 1.0 0.00 0.00 0.00 64 1018.4
20260905202503 78 35 2.0 6.0 0.00 0.00 0.00 64 1018.2
20260905202003 78 34 5.0 7.0 0.00 0.00 0.00 64 1018.2
20260905201503 78 38 4.0 8.0 0.00 0.00 0.00 64 1018.1
20260905201003 79 43 2.0 6.0 0.00 0.00 0.00 64 1018.2
20260905200502 79 355 0.0 1.0 0.00 0.00 0.00 64 1018.1
20260905200004 80 355 1.0 3.0 0.00 0.00 0.00 64 1017.9
20260905195503 80 252 2.0 5.0 0.00 0.00 0.00 62 1017.8
20260905195004 81 219 1.0 3.0 0.00 0.00 0.00 61 1017.8
20260905194003 82 219 0.0 0.0 0.00 0.00 0.00 59 1017.6
20260905193503 82 219 0.0 0.0 0.00 0.00 0.00 59 1017.5
20260905193004 82 219 0.0 5.0 0.00 0.00 0.00 60 1017.5
20260905192503 82 219 1.0 6.0 0.00 0.00 0.00 60 1017.4
20260905192003 83 219 3.0 5.0 0.00 0.00 0.00 59 1017.4
20260905191503 83 219 0.0 0.0 0.00 0.00 0.00 60 1017.4
20260905191003 83 219 0.0 0.0 0.00 0.00 0.00 59 1017.4
20260905190503 84 219 0.0 0.0 0.00 0.00 0.00 59 1017.4
20260905185504 84 219 0.0 3.0 0.00 0.00 0.00 56 1017.5
20260905185004 85 219 1.0 5.0 0.00 0.00 0.00 56 1017.5
20260905184503 85 219 1.0 3.0 0.00 0.00 0.00 56 1017.6
20260905184003 85 219 1.0 3.0 0.00 0.00 0.00 57 1017.7
20260905183503 85 219 2.0 5.0 0.00 0.00 0.00 57 1017.8
20260905183004 86 219 2.0 5.0 0.00 0.00 0.00 57 1017.8
20260905182002 86 219 0.0 1.0 0.00 0.00 0.00 56 1018.0
20260905181503 86 219 0.0 0.0 0.00 0.00 0.00 57 1018.0
20260905181004 86 219 0.0 0.0 0.00 0.00 0.00 56 1017.9
20260905180502 86 219 0.0 0.0 0.00 0.00 0.00 56 1017.9
20260905180004 86 219 0.0 0.0 0.00 0.00 0.00 55 1017.9
20260905175504 87 219 1.0 2.0 0.00 0.00 0.00 56 1017.8
20260905175003 87 219 1.0 3.0 0.00 0.00 0.00 56 1017.7
20260905174503 86 219 0.0 2.0 0.00 0.00 0.00 56 1017.7
20260905174003 86 219 0.0 2.0 0.00 0.00 0.00 56 1017.7
20260905173503 86 219 0.0 2.0 0.00 0.00 0.00 56 1017.6
20260905173004 86 219 3.0 7.0 0.00 0.00 0.00 55 1017.6
20260905172503 86 218 3.0 7.0 0.00 0.00 0.00 55 1017.5
20260905172003 87 218 2.0 6.0 0.00 0.00 0.00 56 1017.5
20260905171503 87 218 4.0 7.0 0.00 0.00 0.00 57 1017.4
20260905170503 87 217 5.0 12.0 0.00 0.00 0.00 54 1017.4
20260905170004 88 219 6.0 9.0 0.00 0.00 0.00 54 1017.4
20260905165503 87 223 6.0 9.0 0.00 0.00 0.00 56 1017.4
20260905165001 87 245 5.0 8.0 0.00 0.00 0.00 55 1017.4
20260905164503 87 201 6.0 9.0 0.00 0.00 0.00 57 1017.5
20260905163503 86 223 6.0 9.0 0.00 0.00 0.00 56 1017.4
20260905163004 86 253 3.0 7.0 0.00 0.00 0.00 55 1017.2
20260905162503 86 233 3.0 8.0 0.00 0.00 0.00 55 1017.2
20260905161503 87 247 2.0 7.0 0.00 0.00 0.00 54 1017.1
20260905161003 87 233 5.0 12.0 0.00 0.00 0.00 54 1017.2
20260905160503 87 236 3.0 10.0 0.00 0.00 0.00 52 1017.1
20260905160004 88 253 5.0 12.0 0.00 0.00 0.00 51 1017.1
20260905155001 90 234 6.0 14.0 0.00 0.00 0.00 49 1017.2
20260905154503 90 231 9.0 15.0 0.00 0.00 0.00 49 1017.1
20260905153503 91 244 10.0 16.0 0.00 0.00 0.00 47 1016.8
20260905153003 92 234 9.0 14.0 0.00 0.00 0.00 47 1016.9
20260905152503 92 233 9.0 16.0 0.00 0.00 0.00 47 1016.9
20260905152003 92 243 10.0 18.0 0.00 0.00 0.00 47 1016.8
20260905151502 91 233 12.0 20.0 0.00 0.00 0.00 47 1016.7
20260905150503 91 228 10.0 16.0 0.00 0.00 0.00 46 1016.7
20260905150004 91 237 6.0 13.0 0.00 0.00 0.00 47 1016.8
20260905145503 91 239 9.0 20.0 0.00 0.00 0.00 45 1016.8
20260905143504 92 223 7.0 14.0 0.00 0.00 0.00 46 1016.8
20260905143003 92 235 8.0 16.0 0.00 0.00 0.00 45 1016.8
20260905142502 92 238 10.0 16.0 0.00 0.00 0.00 44 1016.7
20260905141002 92 243 6.0 12.0 0.00 0.00 0.00 46 1016.8
20260905140503 93 284 5.0 9.0 0.00 0.00 0.00 44 1016.8
20260905140005 93 250 6.0 12.0 0.00 0.00 0.00 42 1016.9
20260905135503 93 245 9.0 15.0 0.00 0.00 0.00 43 1016.8
20260905135003 93 238 5.0 13.0 0.00 0.00 0.00 42 1016.8
20260905134503 94 263 6.0 12.0 0.00 0.00 0.00 41 1016.8
20260905133503 95 252 7.0 12.0 0.00 0.00 0.00 40 1016.8
20260905133004 96 242 6.0 12.0 0.00 0.00 0.00 40 1016.8
20260905132503 95 264 7.0 12.0 0.00 0.00 0.00 41 1016.8
20260905132001 95 254 6.0 12.0 0.00 0.00 0.00 41 1016.8
20260905131503 95 254 6.0 12.0 0.00 0.00 0.00 41 1016.8
20260905131003 95 243 10.0 20.0 0.00 0.00 0.00 40 1016.8
20260905130004 95 249 6.0 12.0 0.00 0.00 0.00 40 1016.8
20260905125503 95 284 6.0 12.0 0.00 0.00 0.00 40 1016.8
20260905125003 95 250 6.0 14.0 0.00 0.00 0.00 40 1016.9
20260905124502 94 246 9.0 14.0 0.00 0.00 0.00 41 1016.8
20260905124003 94 245 10.0 15.0 0.00 0.00 0.00 40 1016.8
20260905123503 94 240 8.0 13.0 0.00 0.00 0.00 40 1016.8
20260905123004 93 267 4.0 9.0 0.00 0.00 0.00 41 1016.8
20260905122502 94 251 5.0 12.0 0.00 0.00 0.00 41 1016.8
20260905122002 94 256 5.0 13.0 0.00 0.00 0.00 38 1016.8
20260905121502 94 257 6.0 9.0 0.00 0.00 0.00 39 1016.8
20260905121003 94 244 4.0 8.0 0.00 0.00 0.00 39 1016.8
20260905115003 93 254 5.0 8.0 0.00 0.00 0.00 41 1017.1
20260905114003 93 250 6.0 12.0 0.00 0.00 0.00 38 1017.3
20260905113504 92 315 1.0 6.0 0.00 0.00 0.00 40 1017.3
20260905113006 92 329 2.0 6.0 0.00 0.00 0.00 43 1017.4
20260905112504 92 32 1.0 3.0 0.00 0.00 0.00 41 1017.5
20260905112003 92 32 1.0 3.0 0.00 0.00 0.00 39 1017.5
20260905111502 91 34 0.0 2.0 0.00 0.00 0.00 46 1017.6
20260905111003 90 34 0.0 0.0 0.00 0.00 0.00 45 1017.7
20260905110504 89 34 0.0 1.0 0.00 0.00 0.00 48 1017.8
20260905110005 89 34 0.0 1.0 0.00 0.00 0.00 47 1017.8
20260905105504 89 34 0.0 3.0 0.00 0.00 0.00 47 1017.8
20260905105002 89 34 1.0 2.0 0.00 0.00 0.00 49 1017.7
20260905104503 88 34 0.0 2.0 0.00 0.00 0.00 50 1017.8
20260905104001 88 34 0.0 2.0 0.00 0.00 0.00 50 1017.8
20260905103504 87 33 0.0 1.0 0.00 0.00 0.00 50 1017.9
20260905103004 87 33 0.0 0.0 0.00 0.00 0.00 55 1017.9
20260905101503 85 33 0.0 0.0 0.00 0.00 0.00 55 1017.9
20260905101004 85 33 0.0 1.0 0.00 0.00 0.00 56 1018.0
20260905100503 84 32 0.0 1.0 0.00 0.00 0.00 56 1018.0
20260905100003 84 32 0.0 0.0 0.00 0.00 0.00 56 1018.0
20260905095504 83 32 0.0 0.0 0.00 0.00 0.00 58 1018.0
20260905095003 83 32 0.0 1.0 0.00 0.00 0.00 60 1018.0
20260905094503 81 32 0.0 1.0 0.00 0.00 0.00 57 1018.0
20260905094003 81 32 0.0 1.0 0.00 0.00 0.00 59 1018.0
20260905093502 81 32 0.0 2.0 0.00 0.00 0.00 61 1018.0
20260905093004 80 32 0.0 2.0 0.00 0.00 0.00 60 1018.1
20260905092503 80 31 0.0 2.0 0.00 0.00 0.00 61 1018.1
20260905091004 78 31 0.0 0.0 0.00 0.00 0.00 64 1018.2
20260905090004 77 24 0.0 1.0 0.00 0.00 0.00 64 1018.1
20260905085502 77 23 0.0 0.0 0.00 0.00 0.00 65 1018.1
20260905085003 77 23 0.0 0.0 0.00 0.00 0.00 63 1018.2
20260905084503 77 23 0.0 0.0 0.00 0.00 0.00 64 1018.2
20260905083503 76 23 0.0 0.0 0.00 0.00 0.00 62 1018.1
20260905083003 76 23 0.0 0.0 0.00 0.00 0.00 61 1018.2
20260905082503 76 23 0.0 0.0 0.00 0.00 0.00 63 1018.2
20260905082003 76 23 0.0 0.0 0.00 0.00 0.00 61 1018.2
20260905081504 74 23 0.0 0.0 0.00 0.00 0.00 62 1018.3
20260905081004 74 23 0.0 0.0 0.00 0.00 0.00 67 1018.3
20260905080503 74 23 0.0 0.0 0.00 0.00 0.00 67 1018.2
20260905080004 73 23 0.0 0.0 0.00 0.00 0.00 67 1018.3
20260905075503 73 23 0.0 0.0 0.00 0.00 0.00 69 1018.3
20260905075003 72 23 0.0 3.0 0.00 0.00 0.00 69 1018.3
20260905074503 72 21 0.0 3.0 0.00 0.00 0.00 70 1018.2
20260905074003 71 14 0.0 3.0 0.00 0.00 0.00 71 1018.2
20260905073503 71 13 0.0 2.0 0.00 0.00 0.00 72 1018.3
20260905073005 70 13 0.0 1.0 0.00 0.00 0.00 73 1018.2
20260905071503 69 13 0.0 0.0 0.00 0.00 0.00 76 1018.3
20260905071003 68 13 0.0 0.0 0.00 0.00 0.00 77 1018.2
20260905070503 68 13 0.0 0.0 0.00 0.00 0.00 77 1018.2
20260905065503 67 13 0.0 0.0 0.00 0.00 0.00 78 1018.1
20260905065004 67 13 0.0 0.0 0.00 0.00 0.00 78 1018.2
20260905064503 67 13 0.0 0.0 0.00 0.00 0.00 78 1018.1
20260905064003 67 13 0.0 0.0 0.00 0.00 0.00 78 1018.0
20260905063502 67 13 1.0 3.0 0.00 0.00 0.00 78 1018.0
20260905062503 68 13 0.0 0.0 0.00 0.00 0.00 78 1018.0
20260905062004 68 13 0.0 2.0 0.00 0.00 0.00 78 1018.0
20260905061503 68 13 0.0 0.0 0.00 0.00 0.00 78 1018.0
20260905061003 68 13 0.0 2.0 0.00 0.00 0.00 78 1017.9
20260905060503 68 13 2.0 3.0 0.00 0.00 0.00 78 1018.0
20260905060004 68 13 1.0 3.0 0.00 0.00 0.00 77 1018.0
20260905055502 68 13 5.0 6.0 0.00 0.00 0.00 77 1017.9
20260905055004 68 274 1.0 5.0 0.00 0.00 0.00 77 1018.0
20260905054503 69 274 1.0 3.0 0.00 0.00 0.00 77 1017.9
20260905054003 69 274 0.0 0.0 0.00 0.00 0.00 77 1017.9
20260905053002 69 274 0.0 0.0 0.00 0.00 0.00 76 1018.0
20260905052503 69 274 0.0 0.0 0.00 0.00 0.00 76 1018.1
20260905052003 69 274 0.0 0.0 0.00 0.00 0.00 76 1018.2
20260905051504 69 274 0.0 0.0 0.00 0.00 0.00 76 1018.2
20260905051004 69 274 0.0 0.0 0.00 0.00 0.00 75 1018.3
20260905050503 69 274 0.0 0.0 0.00 0.00 0.00 75 1018.3
20260905050004 69 274 0.0 0.0 0.00 0.00 0.00 75 1018.4
20260905045504 70 274 0.0 0.0 0.00 0.00 0.00 75 1018.4
20260905045003 70 274 0.0 0.0 0.00 0.00 0.00 75 1018.5
20260905044503 70 274 0.0 1.0 0.00 0.00 0.00 74 1018.5
20260905044003 70 274 0.0 0.0 0.00 0.00 0.00 74 1018.6
20260905043504 70 274 0.0 0.0 0.00 0.00 0.00 74 1018.7
20260905043004 70 274 1.0 3.0 0.00 0.00 0.00 73 1018.7
20260905042503 70 274 3.0 5.0 0.00 0.00 0.00 73 1018.8
20260905042004 71 274 3.0 5.0 0.00 0.00 0.00 73 1018.8
20260905041003 71 274 2.0 3.0 0.00 0.00 0.00 72 1018.9
20260905040503 71 274 0.0 0.0 0.00 0.00 0.00 72 1018.9
20260905040004 71 274 0.0 0.0 0.00 0.00 0.00 72 1018.9
20260905035503 71 274 0.0 0.0 0.00 0.00 0.00 72 1018.9
20260905035003 71 274 0.0 0.0 0.00 0.00 0.00 72 1019.0
20260905034503 71 274 0.0 0.0 0.00 0.00 0.00 72 1019.0
20260905034003 71 274 0.0 0.0 0.00 0.00 0.00 72 1019.1
20260905033503 71 274 0.0 1.0 0.00 0.00 0.00 72 1019.1
20260905033004 71 274 2.0 5.0 0.00 0.00 0.00 73 1019.0
20260905032503 71 274 1.0 5.0 0.00 0.00 0.00 72 1019.1
20260905032003 71 274 0.0 2.0 0.00 0.00 0.00 72 1019.2
20260905031503 71 274 0.0 3.0 0.00 0.00 0.00 72 1019.2
20260905031003 71 274 1.0 3.0 0.00 0.00 0.00 72 1019.2
20260905030503 71 274 0.0 2.0 0.00 0.00 0.00 73 1019.2
20260905030004 71 274 0.0 0.0 0.00 0.00 0.00 73 1019.4
20260905025504 72 274 0.0 0.0 0.00 0.00 0.00 73 1019.4
20260905025003 72 274 0.0 2.0 0.00 0.00 0.00 74 1019.4
20260905024502 72 274 3.0 6.0 0.00 0.00 0.00 73 1019.4
20260905023504 72 274 0.0 0.0 0.00 0.00 0.00 72 1019.2
20260905023004 72 274 2.0 6.0 0.00 0.00 0.00 73 1019.2
20260905022004 72 275 0.0 5.0 0.00 0.00 0.00 70 1019.2
20260905021503 72 275 0.0 3.0 0.00 0.00 0.00 71 1019.2
20260905021003 72 275 0.0 3.0 0.00 0.00 0.00 71 1019.2
20260905020502 72 275 0.0 2.0 0.00 0.00 0.00 71 1019.3
20260905020004 72 275 0.0 0.0 0.00 0.00 0.00 70 1019.4
20260905015503 72 275 0.0 0.0 0.00 0.00 0.00 71 1019.4
20260905015004 72 275 1.0 2.0 0.00 0.00 0.00 71 1019.4
20260905014002 72 275 0.0 0.0 0.00 0.00 0.00 73 1019.5
20260905013503 72 275 0.0 1.0 0.00 0.00 0.00 73 1019.5
20260905013004 73 275 0.0 2.0 0.00 0.00 0.00 73 1019.5
20260905012503 73 275 2.0 3.0 0.00 0.00 0.00 74 1019.5
20260905012004 73 275 2.0 6.0 0.00 0.00 0.00 73 1019.5
20260905011503 73 283 3.0 5.0 0.00 0.00 0.00 73 1019.5
20260905011002 73 284 0.0 2.0 0.00 0.00 0.00 73 1019.5
20260905010502 73 284 0.0 5.0 0.00 0.00 0.00 73 1019.4
20260905010004 73 282 1.0 3.0 0.00 0.00 0.00 73 1019.4
20260905005504 73 282 0.0 2.0 0.00 0.00 0.00 73 1019.5
20260905005004 73 282 1.0 2.0 0.00 0.00 0.00 74 1019.5
20260905004503 73 282 0.0 0.0 0.00 0.00 0.00 73 1019.7
20260905004001 74 282 0.0 0.0 0.00 0.00 0.00 72 1019.9
20260905003504 74 282 0.0 0.0 0.00 0.00 0.00 72 1019.9
20260905003005 74 282 0.0 0.0 0.00 0.00 0.00 72 1019.9
20260905002503 74 282 1.0 3.0 0.00 0.00 0.00 72 1019.9
20260905000503 74 39 0.0 7.0 0.00 0.00 0.00 73 1019.8
20260905000004 74 35 6.0 8.0 0.00 0.00 0.00 73 1019.5
20260904235503 74 350 1.0 5.0 0.00 0.00 0.00 73 1019.8
20260904234004 74 238 4.0 7.0 0.00 0.00 0.00 72 1020.1
20260904233503 74 238 1.0 6.0 0.00 0.00 0.00 72 1020.0
20260904233005 74 238 2.0 5.0 0.00 0.00 0.00 72 1019.7
20260904232003 74 237 0.0 2.0 0.00 0.00 0.00 72 1019.6
20260904231504 75 237 0.0 2.0 0.00 0.00 0.00 72 1019.6
20260904231003 75 237 0.0 0.0 0.00 0.00 0.00 72 1019.8